Stündliche Wetter Kyzymy

Heute, 8 Mai, Samstag

Zeit Temperatur Niederschläge Wind Luftdruck Luftfeuchtigkeit
00:00 +12°C° 0.2 mm 2 m/S 734 mmHg 96%
01:00 +12°C° 0.2 mm 2 m/S 734 mmHg 96%
02:00 +12°C° 0 mm 2 m/S 733 mmHg 96%
03:00 +10°C° 0.7 mm 3 m/S 733 mmHg 95%
04:00 +10°C° 0.7 mm 3 m/S 734 mmHg 94%
05:00 +10°C° 0.7 mm 4 m/S 734 mmHg 93%
06:00 +8°C° 0.2 mm 5 m/S 734 mmHg 92%
07:00 +8°C° 0.2 mm 6 m/S 735 mmHg 91%
08:00 +7°C° 0 mm 8 m/S 736 mmHg 90%
09:00 +7°C° 0.1 mm 8 m/S 736 mmHg 85%
10:00 +7°C° 0.1 mm 8 m/S 737 mmHg 79%
11:00 +9°C° 0.1 mm 8 m/S 737 mmHg 73%
12:00 +9°C° 0.1 mm 8 m/S 738 mmHg 70%
13:00 +9°C° 0.1 mm 8 m/S 739 mmHg 68%
14:00 +8°C° 0.1 mm 9 m/S 739 mmHg 65%
15:00 +7°C° 0 mm 8 m/S 739 mmHg 65%
16:00 +7°C° 0 mm 8 m/S 740 mmHg 66%
17:00 +7°C° 0 mm 8 m/S 740 mmHg 67%
18:00 +6°C° 0 mm 7 m/S 741 mmHg 69%
19:00 +6°C° 0 mm 5 m/S 741 mmHg 71%
20:00 +5°C° 0 mm 4 m/S 742 mmHg 74%
21:00 +4°C° 0 mm 4 m/S 742 mmHg 77%
22:00 +4°C° 0 mm 3 m/S 743 mmHg 81%
23:00 +3°C° 0 mm 3 m/S 743 mmHg 84%

Morgen, 9 Mai, Sonntag

Zeit Temperatur Niederschläge Wind Luftdruck Luftfeuchtigkeit
00:00 +3°C° 0 mm 3 m/S 743 mmHg 86%
01:00 +2°C° 0 mm 3 m/S 744 mmHg 87%
02:00 +1°C° 0 mm 4 m/S 744 mmHg 89%
03:00 +2°C° 0 mm 3 m/S 744 mmHg 89%
04:00 +1°C° 0 mm 3 m/S 745 mmHg 90%
05:00 +1°C° 0 mm 3 m/S 745 mmHg 91%
06:00 +3°C° 0 mm 3 m/S 746 mmHg 82%
07:00 +5°C° 0 mm 4 m/S 746 mmHg 74%
08:00 +7°C° 0 mm 4 m/S 747 mmHg 65%
09:00 +8°C° 0 mm 4 m/S 747 mmHg 60%
10:00 +10°C° 0 mm 4 m/S 747 mmHg 55%
11:00 +11°C° 0 mm 4 m/S 747 mmHg 50%
12:00 +12°C° 0 mm 4 m/S 747 mmHg 48%
13:00 +13°C° 0 mm 4 m/S 747 mmHg 46%
14:00 +13°C° 0 mm 3 m/S 747 mmHg 43%
15:00 +13°C° 0 mm 3 m/S 747 mmHg 45%
16:00 +14°C° 0 mm 2 m/S 747 mmHg 47%
17:00 +14°C° 0 mm 2 m/S 747 mmHg 49%
18:00 +13°C° 0 mm 1 m/S 748 mmHg 52%
19:00 +11°C° 0 mm 1 m/S 748 mmHg 56%
20:00 +9°C° 0 mm 0 m/S 748 mmHg 60%
21:00 +9°C° 0 mm 1 m/S 748 mmHg 61%
22:00 +9°C° 0 mm 1 m/S 749 mmHg 63%
23:00 +8°C° 0 mm 1 m/S 749 mmHg 65%

übermorgen, 10 Mai, Montag

Zeit Temperatur Niederschläge Wind Luftdruck Luftfeuchtigkeit
00:00 +8°C° 0 mm 1 m/S 749 mmHg 66%
01:00 +7°C° 0 mm 1 m/S 749 mmHg 67%
02:00 +7°C° 0 mm 1 m/S 749 mmHg 68%
03:00 +7°C° 0 mm 1 m/S 749 mmHg 69%
04:00 +6°C° 0 mm 1 m/S 749 mmHg 71%
05:00 +5°C° 0 mm 2 m/S 749 mmHg 72%
06:00 +7°C° 0 mm 2 m/S 749 mmHg 68%
07:00 +9°C° 0 mm 2 m/S 750 mmHg 64%
08:00 +11°C° 0 mm 3 m/S 750 mmHg 61%
09:00 +13°C° 0 mm 2 m/S 750 mmHg 56%
10:00 +14°C° 0 mm 2 m/S 750 mmHg 52%
11:00 +15°C° 0 mm 2 m/S 750 mmHg 47%
12:00 +16°C° 0 mm 2 m/S 749 mmHg 45%
13:00 +16°C° 0 mm 2 m/S 749 mmHg 44%
14:00 +17°C° 0 mm 2 m/S 749 mmHg 42%
15:00 +17°C° 0 mm 2 m/S 748 mmHg 43%
16:00 +17°C° 0 mm 2 m/S 748 mmHg 44%
17:00 +17°C° 0 mm 2 m/S 748 mmHg 45%
18:00 +14°C° 0 mm 3 m/S 748 mmHg 53%
19:00 +12°C° 0 mm 3 m/S 748 mmHg 60%
20:00 +10°C° 0 mm 3 m/S 748 mmHg 67%
21:00 +9°C° 0 mm 3 m/S 748 mmHg 69%
22:00 +9°C° 0 mm 3 m/S 748 mmHg 71%
23:00 +8°C° 0 mm 3 m/S 748 mmHg 73%

11 Mai, Dienstag

Zeit Temperatur Niederschläge Wind Luftdruck Luftfeuchtigkeit
00:00 +7°C° 0 mm 3 m/S 748 mmHg 73%
01:00 +7°C° 0 mm 2 m/S 748 mmHg 73%
02:00 +7°C° 0 mm 2 m/S 747 mmHg 73%
03:00 +6°C° 0 mm 2 m/S 747 mmHg 74%
04:00 +6°C° 0 mm 2 m/S 747 mmHg 75%
05:00 +6°C° 0 mm 2 m/S 747 mmHg 76%
06:00 +8°C° 0 mm 3 m/S 746 mmHg 70%
07:00 +10°C° 0 mm 4 m/S 746 mmHg 64%
08:00 +12°C° 0 mm 5 m/S 746 mmHg 58%
09:00 +13°C° 0 mm 5 m/S 746 mmHg 55%
10:00 +14°C° 0 mm 5 m/S 745 mmHg 52%
11:00 +15°C° 0 mm 5 m/S 745 mmHg 49%
12:00 +16°C° 0 mm 5 m/S 745 mmHg 52%
13:00 +16°C° 0 mm 5 m/S 744 mmHg 54%
14:00 +16°C° 0 mm 5 m/S 744 mmHg 56%
15:00 +16°C° 0 mm 5 m/S 744 mmHg 60%
16:00 +17°C° 0 mm 5 m/S 743 mmHg 63%
17:00 +17°C° 0 mm 5 m/S 743 mmHg 67%
18:00 +15°C° 0.1 mm 5 m/S 743 mmHg 74%
19:00 +13°C° 0.1 mm 4 m/S 743 mmHg 81%
20:00 +12°C° 0.1 mm 4 m/S 743 mmHg 88%
21:00 +11°C° 0 mm 4 m/S 743 mmHg 90%
22:00 +10°C° 0 mm 3 m/S 742 mmHg 93%
23:00 +9°C° 0 mm 3 m/S 742 mmHg 95%

12 Mai, Mittwoch

Zeit Temperatur Niederschläge Wind Luftdruck Luftfeuchtigkeit
00:00 +8°C° 0 mm 3 m/S 742 mmHg 94%
01:00 +7°C° 0 mm 3 m/S 742 mmHg 94%
02:00 +5°C° 0 mm 3 m/S 741 mmHg 93%
03:00 +5°C° 0 mm 3 m/S 741 mmHg 93%
04:00 +5°C° 0 mm 3 m/S 741 mmHg 93%
05:00 +5°C° 0 mm 3 m/S 740 mmHg 93%
06:00 +6°C° 0 mm 4 m/S 740 mmHg 87%
07:00 +7°C° 0 mm 4 m/S 740 mmHg 81%
08:00 +9°C° 0 mm 5 m/S 740 mmHg 75%
09:00 +9°C° 0.1 mm 5 m/S 739 mmHg 72%
10:00 +10°C° 0.1 mm 5 m/S 739 mmHg 69%
11:00 +11°C° 0.1 mm 4 m/S 739 mmHg 65%
12:00 +12°C° 0.1 mm 4 m/S 739 mmHg 64%
13:00 +12°C° 0.1 mm 4 m/S 738 mmHg 62%
14:00 +12°C° 0.1 mm 4 m/S 738 mmHg 61%
15:00 +12°C° 0.1 mm 3 m/S 738 mmHg 61%
16:00 +12°C° 0.1 mm 3 m/S 738 mmHg 61%
17:00 +13°C° 0.1 mm 2 m/S 738 mmHg 61%
18:00 +12°C° 0 mm 2 m/S 737 mmHg 65%
19:00 +10°C° 0 mm 2 m/S 737 mmHg 70%
20:00 +9°C° 0 mm 2 m/S 737 mmHg 74%
21:00 +8°C° 0 mm 2 m/S 737 mmHg 76%
22:00 +8°C° 0 mm 2 m/S 737 mmHg 78%
23:00 +7°C° 0 mm 2 m/S 737 mmHg 80%

13 Mai, Donnerstag

Zeit Temperatur Niederschläge Wind Luftdruck Luftfeuchtigkeit
00:00 +7°C° 0 mm 2 m/S 737 mmHg 82%
01:00 +7°C° 0 mm 2 m/S 737 mmHg 84%
02:00 +7°C° 0 mm 2 m/S 737 mmHg 86%
03:00 +7°C° 0.1 mm 3 m/S 736 mmHg 87%
04:00 +7°C° 0.1 mm 3 m/S 736 mmHg 87%
05:00 +7°C° 0.1 mm 3 m/S 736 mmHg 88%
06:00 +7°C° 0.1 mm 4 m/S 736 mmHg 85%
07:00 +7°C° 0.1 mm 5 m/S 736 mmHg 82%
08:00 +8°C° 0.1 mm 5 m/S 736 mmHg 79%
09:00 +9°C° 0.2 mm 5 m/S 736 mmHg 80%
10:00 +9°C° 0.2 mm 5 m/S 736 mmHg 81%
11:00 +9°C° 0.2 mm 5 m/S 736 mmHg 81%
12:00 +11°C° 0.1 mm 6 m/S 735 mmHg 76%
13:00 +14°C° 0.1 mm 6 m/S 735 mmHg 70%
14:00 +15°C° 0.1 mm 7 m/S 735 mmHg 64%
15:00 +15°C° 0 mm 6 m/S 735 mmHg 67%
16:00 +14°C° 0 mm 6 m/S 735 mmHg 69%
17:00 +14°C° 0 mm 5 m/S 735 mmHg 71%
18:00 +13°C° 0 mm 5 m/S 735 mmHg 76%
19:00 +12°C° 0 mm 4 m/S 735 mmHg 80%
20:00 +11°C° 0 mm 3 m/S 735 mmHg 84%
21:00 +11°C° 0 mm 3 m/S 735 mmHg 87%
22:00 +10°C° 0 mm 3 m/S 735 mmHg 89%
23:00 +10°C° 0 mm 3 m/S 735 mmHg 92%
Mehr zeigen

Wir brauchen deine Erlaubnis

Meteoprog und unser Service Anbieter werden persönliche Daten aufbewahren, so wie Cookies, Geräte Bezeichnung oder ähnliche Technologien von deinem Gerät und Prozess, so wie Persönliche Daten Inhalte und Werbungen, genauso wie social Media und den Verkehr zu analysieren.

  • Aufbewahrung und/oder Zugang zu deiner Geräte Informationen.

    Cookies, Geräte Bezeichnung oder andere Informationen, können aufbewahrt oder Zugang zu deinem Gerät erhalten, für den Grund, der oben angegeben wird.

  • Personalisierte Werbung und Inhalte, Messungen, Einblick in das Publikum und Produkt Entwicklung.

    Werbungen und Inhalte können personalisiert werden, basierend auf ein Profil. Mehr Daten können besser personalisierte Werbungen und Inhalte hinzufügen. Werbung und Inhalte können gezeigt und gemessen werden. Einblicke über das Publikum, welche die Werbung gesehen haben und den Inhalt, können abgeleitet werden. So wie Daten können genutzt werden, um es zu verbessern oder die Benutzer Erfahrung zu verbessern das System und die Software.

Wenn du “Ich stimme zu” klickst, erlaubst du uns, die Cookies zu benutzen die Geräte Bezeichnung, den Web oder ähnliche Technologien zu benutzen. Deine Settings, können in deinem Gerät bei deinem Browser geändert werden.

Für den bestimmten Zweck, berechtigten Interessen beruhen darauf, mehr als auf den Inhalt. Du kannst mehr darüber in unseren Privaten und Cookie Politik lesen.